Home > Weather > Jan Mayen > Past weeks

Flag for Norway Past Weather in Jan Mayen, Jan Mayen, Norway — Yesterday and Last 2 Weeks

Now
46 °F

Overcast.


Feels Like: 43 °F
Forecast: 42 / 46 °F
Wind: 7 mph from Southeast

Location: Jan Mayen

Current Time: Jul 1, 2016 at 3:33:06 PM

Latest Report: Jul 1, 2016 at 2:00 PM


Visibility: 19 mi

Pressure: 29.64 "Hg

Humidity: 84%

Dew Point: 42 °F

Location of Jan MayenLocation

Past Weather in Jan Mayen — Graph

°F

Jan Mayen Temperature Yesterday

Maximum temperature yesterday: 47 °F (at 8:00 PM)
Minimum temperature yesterday: 41 °F (at 5:00 AM)
Average temperature yesterday: 45 °F

High & Low Weather Summary for the Past Weeks

 TemperatureHumidityPressure
High50 °F (Jul 1, 7:00 AM)97% (Jun 25, 6:00 PM)30.11 "Hg (Jun 25, 6:00 PM)
Low37 °F (Jun 17, 5:00 AM)69% (Jun 17, 12:00 PM)29.44 "Hg (Jun 28, 7:00 AM)
Average43 °F89%29.85 "Hg
* Reported Jun 16 2:00 PM — Jul 1 2:00 PM, Jan Mayen, Weather by CustomWeather, © 2016

Note: Actual official high and low records may vary slightly from our data, if they occured in-between our weather recording intervals... More about our weather records

Advertising

Jan Mayen Weather History for the Previous 24 Hours

Scroll right to see more
 ConditionsComfort  
Time TempWeatherWind HumidityBarometerVisibility
2:00 PM
Fri, Jul 1
46 °FOvercast.7 mph84%29.64 "Hg19 mi
1:00 PM48 °FCool.8 mph81%29.65 "HgN/A
12:00 PM47 °FCool.6 mph82%29.67 "HgN/A
11:00 AM47 °FCool.9 mph82%29.66 "HgN/A
10:00 AM48 °FCool.9 mph78%29.65 "HgN/A
9:00 AM48 °FCool.5 mph80%29.67 "HgN/A
8:00 AM49 °FCool.6 mph77%29.67 "HgN/A
7:00 AM50 °FCool.2 mph78%29.67 "HgN/A
6:00 AM46 °FCool.2 mph84%29.70 "HgN/A
5:00 AM45 °FCool.3 mph86%29.72 "HgN/A
4:00 AM44 °FQuite cool.2 mph87%29.73 "HgN/A
3:00 AM43 °FQuite cool.1 mph88%29.75 "HgN/A
2:00 AM43 °FLow clouds.3 mph88%29.78 "Hg25 mi
1:00 AM43 °FQuite cool.6 mph89%29.78 "HgN/A
12:00 AM43 °FQuite cool.6 mph90%29.79 "HgN/A
11:00 PM
Thu, Jun 30
45 °FQuite cool.5 mph89%29.81 "HgN/A
10:00 PM44 °FQuite cool.3 mph88%29.80 "HgN/A
9:00 PM47 °FCool.5 mph85%29.82 "HgN/A
8:00 PM47 °FOvercast.3 mph83%29.83 "Hg25 mi
7:00 PM46 °FCool.2 mph86%29.84 "HgN/A
6:00 PM46 °FCool.2 mph89%29.85 "HgN/A
5:00 PM47 °FPartly sunny.3 mph87%29.86 "Hg25 mi
4:00 PM47 °FCool.1 mph87%29.87 "HgN/A
3:00 PM46 °FCool.1 mph90%29.88 "HgN/A
Weather by CustomWeather, © 2016

See weather overviewHow to use our weather pages